When you browse on this site, cookies collect data to enhance your experience and personalize the content and advertising you see.
Visit our Privacy Policy to learn more. By continuing to use the site, you agree to this use of cookies and data.
  • en Suisse
  • Liste des pays
  • À 7 jours
  • Température de l'eau
  • Carte satellitaire
  • Carte météo
  • Widgets météo
  • user-avatar
    Se connecter

    Météo par heure à Guangzhou

    Ce jour, 23 Mars, Samedi

    Heure Température Précipitation Vent Pression Humidité
    00:00 +27°C° 0.2 mm 3 m/s 760 mmHg 69%
    01:00 +26°C° 0.2 mm 4 m/s 761 mmHg 69%
    02:00 +23°C° 0 mm 4 m/s 761 mmHg 74%
    03:00 +23°C° 0.6 mm 4 m/s 761 mmHg 73%
    04:00 +23°C° 0.6 mm 4 m/s 761 mmHg 71%
    05:00 +22°C° 0.6 mm 4 m/s 761 mmHg 70%
    06:00 +22°C° 0.2 mm 4 m/s 762 mmHg 69%
    07:00 +22°C° 0.2 mm 4 m/s 762 mmHg 69%
    08:00 +21°C° 0.2 mm 4 m/s 763 mmHg 68%
    09:00 +21°C° 0.4 mm 4 m/s 763 mmHg 69%
    10:00 +20°C° 0.4 mm 4 m/s 764 mmHg 69%
    11:00 +20°C° 0.4 mm 4 m/s 764 mmHg 69%
    12:00 +20°C° 0.5 mm 4 m/s 764 mmHg 69%
    13:00 +20°C° 0.5 mm 4 m/s 764 mmHg 69%
    14:00 +20°C° 0.5 mm 4 m/s 764 mmHg 69%
    15:00 +20°C° 0.3 mm 4 m/s 763 mmHg 69%
    16:00 +20°C° 0.3 mm 4 m/s 763 mmHg 69%
    17:00 +19°C° 0.3 mm 4 m/s 763 mmHg 70%
    18:00 +19°C° 0.8 mm 4 m/s 763 mmHg 71%
    19:00 +19°C° 0.8 mm 4 m/s 763 mmHg 72%
    20:00 +18°C° 0.8 mm 4 m/s 764 mmHg 73%
    21:00 +18°C° 1.4 mm 4 m/s 764 mmHg 74%
    22:00 +18°C° 1.4 mm 4 m/s 764 mmHg 75%
    23:00 +17°C° 1.4 mm 3 m/s 765 mmHg 76%

    Demain, 24 Mars, Dimanche

    Heure Température Précipitation Vent Pression Humidité
    00:00 +17°C° 0.4 mm 3 m/s 764 mmHg 76%
    01:00 +17°C° 0.4 mm 3 m/s 764 mmHg 76%
    02:00 +17°C° 0.4 mm 3 m/s 764 mmHg 75%
    03:00 +17°C° 0.5 mm 3 m/s 764 mmHg 76%
    04:00 +17°C° 0.5 mm 3 m/s 763 mmHg 76%
    05:00 +17°C° 0.5 mm 2 m/s 763 mmHg 77%
    06:00 +17°C° 0.2 mm 2 m/s 763 mmHg 76%
    07:00 +17°C° 0.2 mm 2 m/s 763 mmHg 75%
    08:00 +17°C° 0.2 mm 2 m/s 764 mmHg 74%
    09:00 +18°C° 0.1 mm 2 m/s 764 mmHg 73%
    10:00 +18°C° 0.1 mm 2 m/s 764 mmHg 72%
    11:00 +18°C° 0.1 mm 2 m/s 764 mmHg 71%
    12:00 +19°C° 0 mm 2 m/s 764 mmHg 68%
    13:00 +20°C° 0 mm 2 m/s 763 mmHg 66%
    14:00 +21°C° 0 mm 2 m/s 763 mmHg 63%
    15:00 +21°C° 0 mm 2 m/s 762 mmHg 63%
    16:00 +23°C° 0 mm 2 m/s 762 mmHg 63%
    17:00 +24°C° 0 mm 2 m/s 761 mmHg 63%
    18:00 +24°C° 0.1 mm 2 m/s 761 mmHg 65%
    19:00 +24°C° 0.1 mm 2 m/s 762 mmHg 66%
    20:00 +23°C° 0.1 mm 2 m/s 762 mmHg 68%
    21:00 +23°C° 0 mm 2 m/s 763 mmHg 70%
    22:00 +23°C° 0 mm 1 m/s 763 mmHg 71%
    23:00 +23°C° 0 mm 1 m/s 763 mmHg 73%

    Après-demain, 25 Mars, Lundi

    Heure Température Précipitation Vent Pression Humidité
    00:00 +23°C° 0 mm 1 m/s 763 mmHg 74%
    01:00 +22°C° 0 mm 1 m/s 762 mmHg 75%
    02:00 +22°C° 0 mm 1 m/s 762 mmHg 76%
    03:00 +22°C° 0 mm 1 m/s 761 mmHg 76%
    04:00 +22°C° 0 mm 1 m/s 761 mmHg 77%
    05:00 +20°C° 0 mm 2 m/s 761 mmHg 77%
    06:00 +21°C° 0 mm 2 m/s 762 mmHg 77%
    07:00 +21°C° 0 mm 2 m/s 762 mmHg 77%
    08:00 +21°C° 0 mm 2 m/s 763 mmHg 76%
    09:00 +21°C° 0.1 mm 2 m/s 763 mmHg 75%
    10:00 +21°C° 0.1 mm 2 m/s 764 mmHg 74%
    11:00 +23°C° 0.1 mm 2 m/s 764 mmHg 73%
    12:00 +23°C° 0.1 mm 2 m/s 764 mmHg 72%
    13:00 +23°C° 0.1 mm 2 m/s 763 mmHg 72%
    14:00 +24°C° 0.1 mm 2 m/s 763 mmHg 71%
    15:00 +24°C° 0 mm 2 m/s 762 mmHg 71%
    16:00 +24°C° 0 mm 2 m/s 762 mmHg 72%
    17:00 +24°C° 0 mm 3 m/s 761 mmHg 72%
    18:00 +24°C° 0 mm 2 m/s 762 mmHg 73%
    19:00 +24°C° 0 mm 2 m/s 762 mmHg 74%
    20:00 +24°C° 0 mm 2 m/s 763 mmHg 75%
    21:00 +23°C° 0 mm 2 m/s 763 mmHg 76%
    22:00 +23°C° 0 mm 1 m/s 764 mmHg 77%
    23:00 +23°C° 0 mm 1 m/s 764 mmHg 78%

    26 Mars, Mardi

    Heure Température Précipitation Vent Pression Humidité
    00:00 +23°C° 0 mm 1 m/s 764 mmHg 78%
    01:00 +23°C° 0 mm 1 m/s 763 mmHg 79%
    02:00 +22°C° 0 mm 1 m/s 763 mmHg 80%
    03:00 +22°C° 0 mm 1 m/s 763 mmHg 80%
    04:00 +22°C° 0 mm 1 m/s 763 mmHg 81%
    05:00 +22°C° 0 mm 1 m/s 762 mmHg 81%
    06:00 +22°C° 0 mm 1 m/s 763 mmHg 79%
    07:00 +23°C° 0 mm 1 m/s 763 mmHg 77%
    08:00 +23°C° 0 mm 1 m/s 764 mmHg 75%
    09:00 +25°C° 0 mm 1 m/s 764 mmHg 70%
    10:00 +26°C° 0 mm 1 m/s 764 mmHg 65%
    11:00 +28°C° 0 mm 1 m/s 765 mmHg 60%
    12:00 +29°C° 0 mm 1 m/s 764 mmHg 58%
    13:00 +29°C° 0 mm 1 m/s 763 mmHg 55%
    14:00 +30°C° 0 mm 2 m/s 762 mmHg 53%
    15:00 +30°C° 0 mm 2 m/s 762 mmHg 52%
    16:00 +31°C° 0 mm 2 m/s 761 mmHg 51%
    17:00 +31°C° 0 mm 3 m/s 761 mmHg 50%
    18:00 +30°C° 0 mm 3 m/s 761 mmHg 53%
    19:00 +29°C° 0 mm 3 m/s 762 mmHg 55%
    20:00 +29°C° 0 mm 4 m/s 762 mmHg 58%
    21:00 +28°C° 0 mm 3 m/s 762 mmHg 61%
    22:00 +27°C° 0 mm 3 m/s 763 mmHg 64%
    23:00 +27°C° 0 mm 3 m/s 763 mmHg 67%

    27 Mars, Mercredi

    Heure Température Précipitation Vent Pression Humidité
    00:00 +26°C° 0 mm 3 m/s 763 mmHg 69%
    01:00 +26°C° 0 mm 3 m/s 762 mmHg 72%
    02:00 +25°C° 0 mm 3 m/s 762 mmHg 75%
    03:00 +25°C° 0 mm 3 m/s 762 mmHg 76%
    04:00 +25°C° 0 mm 3 m/s 762 mmHg 78%
    05:00 +25°C° 0 mm 3 m/s 762 mmHg 79%
    06:00 +25°C° 0 mm 2 m/s 762 mmHg 78%
    07:00 +25°C° 0 mm 2 m/s 762 mmHg 77%
    08:00 +25°C° 0 mm 2 m/s 763 mmHg 76%
    09:00 +26°C° 0 mm 1 m/s 763 mmHg 74%
    10:00 +26°C° 0 mm 1 m/s 763 mmHg 72%
    11:00 +27°C° 0 mm 1 m/s 763 mmHg 71%
    12:00 +27°C° 0 mm 1 m/s 762 mmHg 68%
    13:00 +28°C° 0 mm 1 m/s 761 mmHg 65%
    14:00 +29°C° 0 mm 2 m/s 761 mmHg 62%
    15:00 +29°C° 0 mm 2 m/s 760 mmHg 60%
    16:00 +29°C° 0 mm 2 m/s 760 mmHg 58%
    17:00 +30°C° 0 mm 2 m/s 759 mmHg 56%
    18:00 +30°C° 0 mm 2 m/s 760 mmHg 57%
    19:00 +29°C° 0 mm 2 m/s 760 mmHg 58%
    20:00 +29°C° 0 mm 2 m/s 760 mmHg 60%
    21:00 +29°C° 0 mm 2 m/s 761 mmHg 63%
    22:00 +28°C° 0 mm 2 m/s 761 mmHg 66%
    23:00 +27°C° 0 mm 2 m/s 761 mmHg 70%

    28 Mars, Jeudi

    Heure Température Précipitation Vent Pression Humidité
    00:00 +27°C° 0 mm 2 m/s 760 mmHg 72%
    01:00 +27°C° 0 mm 2 m/s 760 mmHg 75%
    02:00 +26°C° 0 mm 1 m/s 759 mmHg 78%
    03:00 +26°C° 0 mm 1 m/s 759 mmHg 79%
    04:00 +26°C° 0 mm 1 m/s 759 mmHg 81%
    05:00 +25°C° 0 mm 1 m/s 759 mmHg 82%
    06:00 +26°C° 0 mm 1 m/s 759 mmHg 81%
    07:00 +26°C° 0 mm 1 m/s 760 mmHg 80%
    08:00 +26°C° 0 mm 1 m/s 760 mmHg 78%
    09:00 +27°C° 0 mm 1 m/s 760 mmHg 72%
    10:00 +28°C° 0 mm 1 m/s 760 mmHg 66%
    11:00 +30°C° 0 mm 2 m/s 760 mmHg 60%
    12:00 +31°C° 0 mm 2 m/s 759 mmHg 55%
    13:00 +32°C° 0 mm 2 m/s 759 mmHg 50%
    14:00 +34°C° 0 mm 2 m/s 758 mmHg 45%
    15:00 +34°C° 0 mm 3 m/s 757 mmHg 45%
    16:00 +34°C° 0 mm 3 m/s 757 mmHg 44%
    17:00 +35°C° 0 mm 3 m/s 757 mmHg 43%
    18:00 +34°C° 0 mm 3 m/s 757 mmHg 46%
    19:00 +32°C° 0 mm 2 m/s 758 mmHg 49%
    20:00 +32°C° 0 mm 2 m/s 758 mmHg 52%
    21:00 +31°C° 0.3 mm 2 m/s 759 mmHg 56%
    22:00 +30°C° 0.3 mm 2 m/s 759 mmHg 59%
    23:00 +30°C° 0.3 mm 3 m/s 759 mmHg 63%
    Voir plus